GPS BIIR-11

Last updated on Oct. 24, 2020, 5:54 a.m. UTC

1 28190U 04009A   20297.76952046 -.00000102  00000-0  00000-0 0  9996
2 28190  56.2516 357.7202 0088694  99.9120 260.3471  2.00572861121578
UTC
Height (km)
Latitude
Longitude
Inclination
Orbital Period
UTC large
Height (km)
Speed (km/s)
/
Latitude / Longitude
Inclination (degrees)
Orbital Period (minutes)
Azimuth
Elevation
Range (km)
Doppler Factor
iOS Compass Heading
iOS Angle

Next 30 passes for location: Hong Kong

Rise time Rise Azimuth (degrees) Set time Set Azimuth (degrees) Duration Max altitude (degrees)

No matching passes for this satellites